Location: Newark
(53.3333°N, 83.7500°E)
Time: 17:09:23
(UTC+00:00)

SR - Pass Details

Date: 17 November 2019
Orbit: 573 x 882 km, 66.7° (Epoch: 11 December)

Event Time Altitude Azimuth Distance (km) Brightness Sun altitude
Rises 13:56:38 0° 294° (WNW) 3,387 ? -31.0°
Reaches altitude 10° 13:59:39 10° 310° (NW) 2,492 ? -31.4°
Enters shadow 14:04:01 22° 359° (N) 1,825 ? -32.1°
